Regional Weather Roundup
Issued by NWS Grand Forks, ND

Home | Current Version | Previous Version | Text Only | Print | Product List | Glossary Off
Versions: 1 2 3 4 5 6 7 8 9 10 11 12 13 14 15 16 17 18 19 20 21 22 23 24 25 26 27 28 29 30 31 32 33 34 35 36 37 38 39 40 41 42 43 44 45 46 47 48 49 50

000
ASUS43 KFGF 170010
RWRFGF
PRAIRIE TO PINES  WEATHER ROUNDUP
NATIONAL WEATHER SERVICE EASTERN NORTH DAKOTA/GRAND FORKS ND
600 PM CST MON JAN 16 2017

 **SATELLITE DATA USED TO AUGMENT SKY COVER AT AUTOMATED STATIONS**
 *****  WEATHER ACROSS EASTERN NORTH DAKOTA  *****

CITY           SKY/WX    TMP DP  RH WIND       PRES   REMARKS
GRAND FORKS    FAIR      10   5  80 W8        30.04S WCI  -2
6HR MIN TEMP:  10; 6HR MAX TEMP:  22;

GRAND FRKS AFB FAIR      13   7  78 NW6       30.04F WCI   4
DEVILS LAKE    FAIR      11   7  84 W7        30.04S WCI   0
6HR MIN TEMP:  11; 6HR MAX TEMP:  17;

FARGO          FAIR      11   8  88 S3        30.06R
WAHPETON ARPT  FAIR      14  12  92 W6        30.07S WCI   5
$$

 ***** WEATHER ACROSS CENTRAL AND WESTERN NORTH DAKOTA  *****

CITY           SKY/WX    TMP DP  RH WIND       PRES   REMARKS
BISMARCK       FAIR      18  11  74 W7        30.10R WCI   9
6HR MIN TEMP:  17; 6HR MAX TEMP:  27;

MINOT          FAIR      22  16  78 W5        30.04F WCI  16
6HR MIN TEMP:  22; 6HR MAX TEMP:  30;

JAMESTOWN      FAIR      14  10  84 NW9       30.02S WCI   2
6HR MIN TEMP:  14; 6HR MAX TEMP:  18;

MINOT AFB      NOT AVBL
GARRISON         N/A     18  12  77 W10       30.06S WCI   6
WILLISTON      FAIR      16  10  77 S5        30.09F WCI   9
6HR MIN TEMP:  14; 6HR MAX TEMP:  21;

DICKINSON      FAIR      17  11  77 W14       30.06S WCI   3
6HR MIN TEMP:  17; 6HR MAX TEMP:  22;

HETTINGER      FAIR      15  10  80 NW12      30.09R WCI   2
6HR MIN TEMP:  15; 6HR MAX TEMP:  23;

$$

 *****  OTHER AIRPORT OBSERVATIONS IN OUR AREA  *****

CITY           SKY/WX    TMP DP  RH WIND       PRES   REMARKS
WALHALLA       NOT AVBL
GRAFTON AIRPOR FAIR      10   7  85 CALM      30.07R
VALLEY CITY AR FAIR      14  10  85 CALM      30.04S
CANDO          NOT AVBL
CAVALIER APRT    N/A     10   5  79 CALM      30.05S
GWINNER        FAIR      18  12  79 W8        30.05S WCI   7
SHEYENNE NWR     N/A     12   5  74 W3        29.95S
ROLLA            N/A    N/A N/A N/A MISG        N/A
 ***** THE ABOVE OBSERVATIONS ARE NON NWS ARE NOT QUALITY
       CONTROLLED AND MAY MIS-REPORT RAIN FOR SNOW...
$$

  *****  WEATHER ACROSS NORTHERN MINNESOTA  *****

CITY           SKY/WX    TMP DP  RH WIND       PRES   REMARKS
FLAG ISLAND    FAIR      12   7  79 CALM      30.02F
WARROAD        FAIR      12   9  85 CALM      30.03F
ROSEAU         FAIR      12   7  79 CALM      30.03S
HALLOCK        FAIR       9   5  85 S6        30.05S WCI  -1
THF RVR FALLS  FAIR      11   7  84 SE3       30.04S
6HR MIN TEMP:  11; 6HR MAX TEMP:  22;

BAUDETTE       FAIR      16  11  80 E3        30.01S
6HR MIN TEMP:  15; 6HR MAX TEMP:  26;

WASKISH        FAIR      14  10  85 CALM      30.03S
CROOKSTON      FAIR      10   7  85 SE6       30.06S WCI   1
GREENBUSH NDAW   N/A     10   5  79 CALM        N/A
$$
  *****  WEATHER ACROSS CENTRAL AND WEST MINNESOTA  *****

CITY           SKY/WX    TMP DP  RH WIND       PRES   REMARKS
FOSSTON        FAIR      10   5  79 CALM      30.04R
BEMIDJI        FAIR      17  14  86 CALM      30.00S
PARK RAPIDS    FAIR      18  12  77 S7        30.01R WCI   9
6HR MIN TEMP:  16; 6HR MAX TEMP:  31;

ELBOW LAKE     FAIR      15  13  90 W6        30.05R FOG     WCI   7
6HR MIN TEMP:  15; 6HR MAX TEMP:  25;

WADENA         FAIR      19  16  86 CALM      30.03S
DETROIT LAKES  FAIR      23  16  74 SW3       30.04R
MOORHEAD       FAIR      12   7  79 CALM      30.07R
FERGUS FALLS   FAIR      16  10  79 NW5       30.09S WCI   9
MORRIS MN      FAIR      21  18  86 CALM      30.05R
STAPLES        FAIR      18  14  86 CALM      30.04R
$$
  *****  WEATHER ELSEWHERE ACROSS MINNESOTA  *****

CITY           SKY/WX    TMP DP  RH WIND       PRES   REMARKS
DULUTH         FAIR      27  17  66 SW3       30.03F
6HR MIN TEMP:  25; 6HR MAX TEMP:  34;

INTRNTL FALLS  FAIR      17  11  77 CALM      30.03R
6HR MIN TEMP:  17; 6HR MAX TEMP:  31;

ELY            FAIR      23  19  86 CALM      30.03R
CLOQUET        FAIR      27  16  63 CALM      30.04S
WHEATON        FAIR      21  19  93 CALM      30.08S
BRAINERD       FAIR      21  15  78 CALM      30.04S
6HR MIN TEMP:  17; 6HR MAX TEMP:  31;

HIBBING        FAIR      18  17  96 CALM      30.03R
6HR MIN TEMP:  15; 6HR MAX TEMP:  29;

ALEXANDRIA     FAIR      26  18  71 SE3       30.03S
6HR MIN TEMP:  22; 6HR MAX TEMP:  33;

SAINT CLOUD    FAIR      26  22  84 NE5       30.03F WCI  20
6HR MIN TEMP:  21; 6HR MAX TEMP:  28;

MINNEAPOLIS    FRZ RAIN  31  23  72 NE7       30.03F WCI  24
6HR MIN TEMP:  27; 6HR MAX TEMP:  32; 6HR PCP: TRACE;

$$

  *****  WEATHER ACROSS SOUTH DAKOTA  *****

CITY           SKY/WX    TMP DP  RH WIND       PRES   REMARKS
SIOUX FALLS    FRZ RAIN  31  29  92 N8        29.99R FOG     WCI  23
6HR MIN TEMP:  30; 6HR MAX TEMP:  32; 6HR PCP: TRACE;

BROOKINGS      FAIR      24  20  84 N6        29.99R WCI  17
WATERTOWN      FAIR      19  16  88 N3        30.00R
6HR MIN TEMP:  15; 6HR MAX TEMP:  26;

HURON          FAIR      14  10  84 NW9       30.06R WCI   2
6HR MIN TEMP:  14; 6HR MAX TEMP:  20;

SISSETON         N/A     13  11  92 N6        30.05R WCI   4
ABERDEEN       FAIR      11   5  77 CALM      30.07R
6HR MIN TEMP:  11; 6HR MAX TEMP:  25;

MITCHELL       FAIR      21  15  78 NW10      30.06R WCI  10
PIERRE         FAIR      18  12  77 NW9       30.07R WCI   7
6HR MIN TEMP:  14; 6HR MAX TEMP:  22;

MOBRIDGE       FAIR      13   7  77 NW8       30.05S WCI   2
RAPID CITY     FAIR      28  17  63 N17       30.08R WCI  16
6HR MIN TEMP:  28; 6HR MAX TEMP:  36;

$$

  *****  SOME WEATHER IN NEARBY STATES *****

CITY           SKY/WX    TMP DP  RH WIND       PRES   REMARKS
GLASGOW MT     FAIR      10   5  80 S7        30.05F WCI  -1
6HR MIN TEMP:   9; 6HR MAX TEMP:  19;

GREAT FALLS MT FAIR      33  19  56 S18       30.00R WCI  22
6HR MIN TEMP:  27; 6HR MAX TEMP:  35;

CHEYENNE WY    FAIR      34  11  38 N6        30.07R
6HR MIN TEMP:  33; 6HR MAX TEMP:  37;

SCOTTSBLUFF NE FAIR      34  19  54 NW7       30.09R
6HR MIN TEMP:  34; 6HR MAX TEMP:  43;

OMAHA NE       DRIZZLE   34  30  85 N10       29.92R FOG
6HR MIN TEMP:  33; 6HR MAX TEMP:  35; 6HR PCP:  0.05;

DES MOINES IA  DRZL/FOG  34  33  96 NE5       29.89S VSB 1/2
6HR MIN TEMP:  34; 6HR MAX TEMP:  34; 6HR PCP:  0.12;

DAVENPORT IA   CLOUDY    35  34  96 E12       29.93F FOG
6HR MIN TEMP:  34; 6HR MAX TEMP:  36; 6HR PCP:  0.28;

CHICAGO IL     DRIZZLE   36  35  96 E9        30.02F FOG
6HR MIN TEMP:  35; 6HR MAX TEMP:  36; 6HR PCP:  0.50;

EAU CLAIRE WI  FRZ RAIN  30  23  75 NE6       30.04F WCI  24
6HR MIN TEMP:  23; 6HR MAX TEMP:  30; 6HR PCP:  0.02;

LA CROSSE WI   LGT RAIN  37  31  78 E6        30.00F
6HR MIN TEMP:  31; 6HR MAX TEMP:  37; 6HR PCP:  0.31;

$$

  *****  SOME NATIONAL WEATHER *****

CITY           SKY/WX    TMP DP  RH WIND       PRES   REMARKS
LA GUARDIA NY  MOCLDY    43  25  49 SW7       30.34F
6HR MIN TEMP:  41; 6HR MAX TEMP:  44;

RALEIGH NC     CLOUDY    49  36  61 S5        30.37S
6HR MIN TEMP:  49; 6HR MAX TEMP:  51;

ATLANTA GA     MOCLDY    67  54  63 SE6       30.23S
6HR MIN TEMP:  65; 6HR MAX TEMP:  71;

NEW ORLEANS LA MOCLDY    71  63  75 S8        30.12R
6HR MIN TEMP:  71; 6HR MAX TEMP:  78;

OKLAHOMA CITY  MOCLDY    45  34  65 W9        30.02R
6HR MIN TEMP:  43; 6HR MAX TEMP:  50;

ALBUQUERQUE NM MOCLDY    47  36  65 E6        30.00R
6HR MIN TEMP:  39; 6HR MAX TEMP:  48;

SALT LAKE CITY FAIR      27  18  69 W6        30.26S WCI  20
6HR MIN TEMP:  26; 6HR MAX TEMP:  30;

LOS ANGELES CA FAIR      59  51  75 W16       30.03R
6HR MIN TEMP:  58; 6HR MAX TEMP:  61;

BOISE ID       FAIR     C1F1C2F2C3F3C4F4C5F5C6F6C7F7C8F8C9F9CaFaCbFbCcFcCd!



USA.gov is the U.S. government's official web portal to all federal, state and local government web resources and services.